Meteo pe oră la Akureyri

Astăzi, 31 Octombrie, Sâmbătă

Timp Temperatura Precipitaţii Vânt Presiune Umiditate
00:00 -5°C° 0 mm 3 m/s 724 mmHg 91%
01:00 -4°C° 0 mm 3 m/s 724 mmHg 92%
02:00 -3°C° 0.1 mm 4 m/s 724 mmHg 92%
03:00 -3°C° 0.1 mm 4 m/s 724 mmHg 93%
04:00 -3°C° 0.1 mm 4 m/s 723 mmHg 93%
05:00 -3°C° 0.2 mm 4 m/s 723 mmHg 94%
06:00 -2°C° 0.2 mm 3 m/s 723 mmHg 96%
07:00 -2°C° 0 mm 3 m/s 723 mmHg 97%
08:00 -1°C° 0.6 mm 3 m/s 723 mmHg 97%
09:00 0°C° 0.6 mm 3 m/s 724 mmHg 98%
10:00 +1°C° 0.6 mm 2 m/s 724 mmHg 98%
11:00 +1°C° 0.1 mm 2 m/s 724 mmHg 98%
12:00 +2°C° 0.1 mm 1 m/s 724 mmHg 99%
13:00 +2°C° 0 mm 1 m/s 724 mmHg 98%
14:00 +2°C° 0 mm 1 m/s 724 mmHg 98%
15:00 +2°C° 0 mm 1 m/s 724 mmHg 98%
16:00 +2°C° 0 mm 1 m/s 724 mmHg 98%
17:00 +1°C° 0 mm 1 m/s 724 mmHg 98%
18:00 +1°C° 0 mm 1 m/s 724 mmHg 98%
19:00 +1°C° 0 mm 1 m/s 724 mmHg 98%
20:00 +1°C° 0 mm 1 m/s 724 mmHg 98%
21:00 +1°C° 0 mm 1 m/s 724 mmHg 98%
22:00 +2°C° 0 mm 1 m/s 724 mmHg 98%
23:00 +1°C° 0 mm 2 m/s 723 mmHg 98%

Mâine, 1 Noiembrie, Duminică

Timp Temperatura Precipitaţii Vânt Presiune Umiditate
00:00 +1°C° 0 mm 2 m/s 723 mmHg 98%
01:00 +1°C° 0 mm 2 m/s 722 mmHg 98%
02:00 +1°C° 0 mm 2 m/s 722 mmHg 98%
03:00 +1°C° 0 mm 2 m/s 721 mmHg 98%
04:00 +2°C° 0 mm 2 m/s 721 mmHg 98%
05:00 +1°C° 0 mm 3 m/s 720 mmHg 97%
06:00 +1°C° 0 mm 3 m/s 720 mmHg 96%
07:00 +1°C° 0 mm 4 m/s 720 mmHg 96%
08:00 +1°C° 0.3 mm 4 m/s 719 mmHg 96%
09:00 +1°C° 0.3 mm 4 m/s 719 mmHg 96%
10:00 +1°C° 0.3 mm 4 m/s 719 mmHg 96%
11:00 +1°C° 0.1 mm 4 m/s 718 mmHg 96%
12:00 +3°C° 0.1 mm 3 m/s 718 mmHg 97%
13:00 +3°C° 0.1 mm 3 m/s 717 mmHg 97%
14:00 +3°C° 0.1 mm 4 m/s 717 mmHg 97%
15:00 +4°C° 0.1 mm 4 m/s 716 mmHg 97%
16:00 +4°C° 0.1 mm 4 m/s 716 mmHg 97%
17:00 +3°C° 0.2 mm 5 m/s 715 mmHg 96%
18:00 +3°C° 0.2 mm 5 m/s 715 mmHg 96%
19:00 +3°C° 0.2 mm 5 m/s 714 mmHg 96%
20:00 +3°C° 0.5 mm 6 m/s 713 mmHg 95%
21:00 +4°C° 0.5 mm 6 m/s 713 mmHg 94%
22:00 +4°C° 0.5 mm 7 m/s 712 mmHg 93%
23:00 +4°C° 0.7 mm 6 m/s 711 mmHg 93%

Poimâine, 2 Noiembrie, Luni

Timp Temperatura Precipitaţii Vânt Presiune Umiditate
00:00 +4°C° 0.7 mm 6 m/s 711 mmHg 93%
01:00 +4°C° 0.7 mm 6 m/s 710 mmHg 93%
02:00 +4°C° 1.1 mm 6 m/s 710 mmHg 93%
03:00 +5°C° 1.1 mm 5 m/s 709 mmHg 93%
04:00 +3°C° 1.1 mm 5 m/s 709 mmHg 93%
05:00 +3°C° 0.7 mm 5 m/s 708 mmHg 93%
06:00 +3°C° 0.7 mm 5 m/s 707 mmHg 93%
07:00 +3°C° 0.7 mm 5 m/s 706 mmHg 94%
08:00 +3°C° 1.1 mm 5 m/s 706 mmHg 94%
09:00 +3°C° 1.1 mm 5 m/s 705 mmHg 94%
10:00 +5°C° 1.1 mm 5 m/s 705 mmHg 94%
11:00 +5°C° 0.2 mm 5 m/s 705 mmHg 92%
12:00 +5°C° 0.2 mm 5 m/s 705 mmHg 91%
13:00 +5°C° 0.2 mm 5 m/s 704 mmHg 90%
14:00 +5°C° 0 mm 4 m/s 704 mmHg 91%
15:00 +4°C° 0 mm 4 m/s 704 mmHg 92%
16:00 +4°C° 0 mm 3 m/s 704 mmHg 93%
17:00 +4°C° 0.1 mm 3 m/s 704 mmHg 94%
18:00 +4°C° 0.1 mm 3 m/s 703 mmHg 96%
19:00 +4°C° 0.1 mm 3 m/s 703 mmHg 97%
20:00 +4°C° 1 mm 3 m/s 701 mmHg 97%
21:00 +4°C° 1 mm 3 m/s 700 mmHg 97%
22:00 +5°C° 1 mm 3 m/s 699 mmHg 97%
23:00 +5°C° 1.7 mm 3 m/s 697 mmHg 98%

3 Noiembrie, Marţi

Timp Temperatura Precipitaţii Vânt Presiune Umiditate
00:00 +5°C° 1.7 mm 3 m/s 696 mmHg 98%
01:00 +7°C° 1.7 mm 2 m/s 695 mmHg 98%
02:00 +7°C° 1.3 mm 3 m/s 694 mmHg 96%
03:00 +7°C° 1.3 mm 3 m/s 693 mmHg 93%
04:00 +6°C° 1.3 mm 4 m/s 693 mmHg 90%
05:00 +6°C° 0.9 mm 4 m/s 693 mmHg 92%
06:00 +6°C° 0.9 mm 4 m/s 693 mmHg 93%
07:00 +5°C° 0.9 mm 5 m/s 693 mmHg 94%
08:00 +5°C° 0.5 mm 5 m/s 694 mmHg 90%
09:00 +5°C° 0.5 mm 5 m/s 695 mmHg 85%
10:00 +4°C° 0.5 mm 6 m/s 696 mmHg 81%
11:00 +4°C° 0 mm 6 m/s 697 mmHg 79%
12:00 +3°C° 0 mm 6 m/s 698 mmHg 77%
13:00 +3°C° 0 mm 6 m/s 700 mmHg 75%
14:00 +3°C° 0 mm 6 m/s 701 mmHg 77%
15:00 +2°C° 0 mm 6 m/s 702 mmHg 78%
16:00 +1°C° 0 mm 6 m/s 703 mmHg 79%
17:00 +1°C° 0 mm 6 m/s 705 mmHg 78%
18:00 +1°C° 0 mm 5 m/s 706 mmHg 78%
19:00 0°C° 0 mm 5 m/s 707 mmHg 77%
20:00 0°C° 0 mm 5 m/s 708 mmHg 78%
21:00 0°C° 0 mm 4 m/s 709 mmHg 79%
22:00 0°C° 0 mm 4 m/s 710 mmHg 81%
23:00 0°C° 0 mm 4 m/s 710 mmHg 80%

4 Noiembrie, Miercuri

Timp Temperatura Precipitaţii Vânt Presiune Umiditate
00:00 0°C° 0 mm 4 m/s 711 mmHg 80%
01:00 0°C° 0 mm 4 m/s 712 mmHg 80%
02:00 -1°C° 0 mm 4 m/s 713 mmHg 82%
03:00 -1°C° 0 mm 4 m/s 713 mmHg 83%
04:00 0°C° 0 mm 3 m/s 713 mmHg 85%
05:00 0°C° 0 mm 3 m/s 714 mmHg 85%
06:00 0°C° 0 mm 3 m/s 714 mmHg 86%
07:00 0°C° 0 mm 3 m/s 715 mmHg 86%
08:00 -1°C° 0 mm 4 m/s 715 mmHg 84%
09:00 -1°C° 0 mm 4 m/s 715 mmHg 81%
10:00 -1°C° 0 mm 4 m/s 715 mmHg 79%
11:00 0°C° 0 mm 4 m/s 715 mmHg 78%
12:00 0°C° 0 mm 4 m/s 715 mmHg 78%
13:00 0°C° 0 mm 5 m/s 716 mmHg 78%
14:00 0°C° 0 mm 4 m/s 715 mmHg 80%
15:00 0°C° 0 mm 4 m/s 715 mmHg 82%
16:00 0°C° 0 mm 4 m/s 715 mmHg 84%
17:00 0°C° 0 mm 4 m/s 715 mmHg 84%
18:00 0°C° 0 mm 4 m/s 715 mmHg 85%
19:00 -1°C° 0 mm 4 m/s 715 mmHg 85%
20:00 -1°C° 0 mm 4 m/s 715 mmHg 86%
21:00 -1°C° 0 mm 4 m/s 715 mmHg 86%
22:00 -1°C° 0 mm 4 m/s 715 mmHg 86%
23:00 -1°C° 0 mm 4 m/s 715 mmHg 86%

5 Noiembrie, Joi

Timp Temperatura Precipitaţii Vânt Presiune Umiditate
00:00 -1°C° 0 mm 4 m/s 715 mmHg 85%
01:00 -1°C° 0 mm 4 m/s 715 mmHg 85%
02:00 -1°C° 0 mm 4 m/s 715 mmHg 84%
03:00 -1°C° 0 mm 4 m/s 715 mmHg 83%
04:00 0°C° 0 mm 4 m/s 715 mmHg 83%
05:00 -1°C° 0 mm 4 m/s 715 mmHg 83%
06:00 -1°C° 0 mm 4 m/s 715 mmHg 82%
07:00 -1°C° 0 mm 4 m/s 715 mmHg 82%
08:00 0°C° 0 mm 4 m/s 714 mmHg 83%
09:00 +1°C° 0 mm 4 m/s 714 mmHg 84%
10:00 +2°C° 0 mm 5 m/s 714 mmHg 85%
11:00 +2°C° 0 mm 5 m/s 714 mmHg 83%
12:00 +3°C° 0 mm 5 m/s 714 mmHg 81%
13:00 +3°C° 0 mm 5 m/s 715 mmHg 78%
14:00 +2°C° 0 mm 5 m/s 715 mmHg 80%
15:00 +3°C° 0 mm 4 m/s 715 mmHg 82%
16:00 +1°C° 0 mm 4 m/s 715 mmHg 84%
17:00 +2°C° 0 mm 3 m/s 715 mmHg 84%
18:00 +2°C° 0 mm 3 m/s 715 mmHg 84%
19:00 +2°C° 0 mm 3 m/s 715 mmHg 83%
20:00 +3°C° 0 mm 4 m/s 715 mmHg 84%
21:00 +4°C° 0 mm 4 m/s 715 mmHg 85%
22:00 +5°C° 0 mm 4 m/s 715 mmHg 86%
23:00 +5°C° 0 mm 4 m/s 715 mmHg 86%
Arată mai mult

Formular de consimțământ

Meteoprog și furnizorii noștri de servicii pot stoca și accesa date personale, precum cookies, identificatori de dispozitiv sau alte tehnologii similare pe dispozitivul dumneavoastră și procesa astfel de date pentru a personaliza conținutul și reclamele, dar și pentru a oferi caracteristici de social media și pentru a analiza traficul.

  • Stocarea și/sau accesarea informațiilor pe dispozitivul dumneavoastră

    Cookies, identificatori de dispozitiv sau alte informații pot fi stocate sau accesate pe dispozitiv în scopurile indicate mai sus.

  • Reclame și conținut personalizat, evaluarea reclamelor și a conținutului, informații despre audiențe și dezvoltarea produselor

    Reclamele și conținutul pot fi personalizate pe baza unui profil. Pot fi adăugate date suplimentare pentru a personaliza mai bine reclamele și conținutul. Performanța reclamelor și conținutului poate fi măsurată. Pot fi obținute informații despre utilizatorii care au văzut reclamele și conținutul. Aceste date pot fi utilizate pentru a dezvolta sau îmbunătăți experiența utilizatorilor, sistemele și software-ul.

Dând clic pe ‘Sunt de acord’, permiteți utilizarea cookie-urilor menționate, a identificatorilor de dispozitiv, balizelor web sau altor tehnologii similare. Setările pot fi modificate din browser-ul dispozitivului dumneavoastră.

În anumite scopuri, interesele legitime pot prima asupra consimțământului. Puteți citi mai multe informații în acest sens în Politica privind Confidențialitatea Datelor și Cookie.